Casper, WY

2:26 PM MST on December 08, 2019 (GMT -0700)
Natrona County International

Weather History for KCPR - October, 2019

Change the Weather History Date:

Monday, October 21, 2019

  Actual Average Record
Temperature  
Mean Temperature 35 °F 44 °F  
Max Temperature 43 °F 57 °F 79 °F (1992)
Min Temperature 27 °F 30 °F 12 °F (1949)
Degree Days  
Heating Degree Days 30 21  
Month to date heating degree days 456 383  
Since 1 July heating degree days 627 668  
Cooling Degree Days 0 0  
Month to date cooling degree days 0 0  
Year to date cooling degree days 441 422  
Moisture  
Dew Point 25 °F    
Average Humidity 71    
Maximum Humidity 92    
Minimum Humidity 49    
Precipitation  
Precipitation 0.00 in 0.03 in 0.46 in (2008)
Month to date precipitation 0.98 0.78  
Year to date precipitation 11.68 10.94  
Snow  
Snow 0.00 in 0.20 in - ()
Month to date snowfall 7.6 4.5  
Since 1 July snowfall 7.6 6.3  
Since 1 September snowfall 7.6 6.3  
Snow Depth 0.00 in    
Sea Level Pressure  
Sea Level Pressure 30.06 in    
Wind  
Wind Speed 10 mph (West)    
Max Wind Speed 23 mph    
Max Gust Speed 32 mph    
Visibility 10 miles    
Events      
T = Trace of Precipitation, MM = Missing Value Source: NWS Daily Summary

Daily Weather History Graph

Daily Weather History Graph

Search for Another Location

Airport or City:

Astronomy

Oct. 21, 2019 Rise Set
Actual Time 7:26 AM MDT 6:13 PM MDT
Civil Twilight 6:57 AM MDT 6:42 PM MDT
Nautical Twilight 6:24 AM MDT 7:15 PM MDT
Astronomical Twilight 5:51 AM MDT 7:48 PM MDT
Moon No Moon Rise 2:51 PM MDT (10/21)
Length of Visible Light 11h 45m
Length of Day
10h 47m
Waning Gibbous, 47% of the Moon is Illuminated
Oct 21
Waning Gibbous
Oct 27
New
Nov 4
First Quarter
Nov 12
Full
Nov 19
Last Quarter

Hourly Weather History & Observations

Time (MDT) Temp. Windchill Dew Point Humidity Pressure Visibility Wind Dir Wind Speed Gust Speed Precip Events Conditions
12:53 AM 27.0 °F 18.0 °F 24.1 °F 89% 29.99 in 10.0 mi WSW 9.2 mph - N/A   Clear
1:53 AM 30.0 °F 21.1 °F 25.0 °F 82% 29.97 in 10.0 mi WSW 10.4 mph - N/A   Mostly Cloudy
2:53 AM 28.9 °F 22.8 °F 24.1 °F 82% 29.98 in 10.0 mi West 5.8 mph - N/A   Overcast
3:53 AM 28.0 °F 20.8 °F 21.9 °F 78% 29.97 in 10.0 mi West 6.9 mph - N/A   Mostly Cloudy
4:53 AM 28.9 °F 22.8 °F 25.0 °F 85% 29.98 in 10.0 mi WSW 5.8 mph - N/A   Overcast
5:53 AM 30.0 °F 21.7 °F 25.0 °F 82% 29.98 in 10.0 mi WSW 9.2 mph - N/A   Overcast
6:53 AM 30.0 °F 22.4 °F 24.1 °F 79% 30.01 in 10.0 mi WSW 8.1 mph - N/A   Overcast
7:53 AM 28.0 °F 24.2 °F 23.0 °F 81% 30.03 in 10.0 mi West 3.5 mph - N/A   Mostly Cloudy
8:53 AM 30.0 °F 21.1 °F 23.0 °F 75% 30.04 in 10.0 mi SW 10.4 mph - N/A   Clear
9:53 AM 32.0 °F 23.0 °F 25.0 °F 75% 30.05 in 10.0 mi SSW 11.5 mph - N/A   Scattered Clouds
10:53 AM 34.0 °F 26.6 °F 25.0 °F 70% 30.05 in 10.0 mi SW 9.2 mph - N/A   Mostly Cloudy
11:53 AM 36.0 °F 27.1 °F 25.0 °F 64% 30.05 in 10.0 mi SW 13.8 mph - N/A   Mostly Cloudy
12:53 PM 39.0 °F 30.6 °F 25.0 °F 57% 30.06 in 10.0 mi West 15.0 mph - N/A   Overcast
1:53 PM 39.0 °F 29.9 °F 26.1 °F 60% 30.05 in 10.0 mi West 17.3 mph - N/A   Overcast
2:53 PM 39.9 °F 31.8 °F 26.1 °F 58% 30.04 in 10.0 mi West 15.0 mph - N/A   Partly Cloudy
3:53 PM 43.0 °F 35.1 °F 25.0 °F 49% 30.04 in 10.0 mi WNW 17.3 mph - N/A   Clear
4:53 PM 42.1 °F 34.2 °F 25.0 °F 51% 30.06 in 10.0 mi West 16.1 mph - N/A   Clear
5:53 PM 39.0 °F 32.3 °F 27.0 °F 62% 30.09 in 10.0 mi WNW 10.4 mph - N/A   Overcast
6:53 PM 34.0 °F 28.0 °F 26.1 °F 73% 30.14 in 10.0 mi West 6.9 mph - N/A   Mostly Cloudy
7:53 PM 35.1 °F 31.0 °F 27.0 °F 72% 30.17 in 10.0 mi NW 4.6 mph - N/A   Overcast
8:53 PM 34.0 °F 28.8 °F 27.0 °F 75% 30.18 in 10.0 mi WNW 5.8 mph - N/A   Overcast
9:53 PM 34.0 °F 31.0 °F 27.0 °F 75% 30.19 in 10.0 mi NNW 3.5 mph - N/A   Overcast
10:53 PM 34.0 °F 28.8 °F 26.1 °F 73% 30.19 in 10.0 mi West 5.8 mph - N/A   Scattered Clouds
11:53 PM 30.9 °F 21.2 °F 26.1 °F 82% 30.19 in 10.0 mi SSW 12.7 mph - N/A   Partly Cloudy